Tracking 26933 objects as of 5-Feb-2023
HD Live streaming from Space Station
objects crossing your sky now

DRUMS

Track DRUMS now!
10-day predictions


NORAD ID: 49401
Int'l Code: 2021-102G
Perigee: 546.8 km
Apogee: 576.5 km
Inclination: 97.5 °
Period: 95.7 minutes
Semi major axis: 6932 km
RCS: Unknown
Launch date: November 9, 2021
Source: Japan (JPN)
Launch site: KAGOSHIMA SPACE CENTER UNIVERSITY OF TOKYO (KSCUT)
Your satellite tracking list
Your tracking list is empty




NASA's NSSDC Master Catalog

Two Line Element Set (TLE):
1 49401U 21102G   23035.86935659  .00002501  00000-0  18440-3 0  9996
2 49401  97.5053  93.2062 0021453 148.0827 212.1704 15.04022753 68017
Source of the keplerian elements: AFSPC